Total_Precipitation_Accumulation
0.00 0.00 0.03 0.12 0.34 0.60 0.58 0.94 1.62 1.84 2.32 3.54 3.09 2.39 2.99 1.79 1.15 1.42 0.99 0.72 0.83 0.84 0.94 0.61 0.37 0.36 0.57 0.62 0.26 0.33 0.54 0.34 0.29 0.46 0.44 0.48 0.47 0.25 0.47 0.58 0.77 1.13 0.74 0.78
0.00 0.01 0.04 0.05 0.06 0.08 0.22 0.63 1.69 1.73 2.26 2.15 2.90 2.13 2.27 2.37 1.29 0.95 1.00 1.01 1.27 1.22 0.79 0.53 0.44 0.40 1.22 1.00 0.35 0.31 0.36 0.53 0.49 0.47 0.52 0.84 0.78 0.35 0.46 0.91 1.05 0.91 0.97 1.29
0.00 0.02 0.03 0.04 0.06 0.12 0.26 0.37 1.20 2.09 2.01 2.23 2.07 2.75 2.06 2.15 2.13 1.21 1.11 0.73 0.71 0.84 1.42 0.74 0.47 0.41 0.63 0.83 0.33 0.33 0.36 0.40 0.41 0.59 0.66 1.19 1.40 1.66 1.87 1.37 1.53 1.85 2.28 1.08
0.00 0.02 0.08 0.09 0.07 0.14 0.46 0.44 1.08 1.92 1.92 2.02 1.66 1.88 2.03 2.03 1.99 2.14 1.41 0.55 0.46 0.37 0.58 0.72 0.42 0.28 0.26 0.32 0.36 0.51 0.63 0.52 0.49 0.62 0.84 1.26 1.57 1.79 1.43 1.43 2.13 1.13 1.59 0.92
0.00 0.00 0.03 0.08 0.04 0.10 0.22 0.21 0.42 1.21 1.46 1.33 0.99 1.09 1.42 2.10 1.90 2.02 1.66 0.63 0.51 0.35 0.37 0.42 0.45 0.64 0.52 0.45 0.47 0.52 0.66 0.86 0.81 0.69 1.69 1.42 1.42 1.75 1.67 1.97 2.57 1.87 1.73 1.02
0.00 0.02 0.03 0.03 0.05 0.13 0.10 0.21 0.23 0.64 1.52 1.47 0.82 0.71 1.16 1.14 1.21 1.45 1.41 1.14 0.56 0.30 0.37 0.59 0.61 0.67 0.47 0.44 0.32 0.46 0.60 0.84 0.95 0.87 1.14 1.49 1.88 1.83 2.45 2.56 2.64 1.47 1.25 1.15
0.00 0.00 0.02 0.02 0.09 0.17 0.09 0.14 0.32 0.69 1.40 1.61 0.48 0.51 0.74 0.34 0.89 1.06 1.06 1.28 0.64 0.42 0.44 0.47 0.44 0.50 0.61 0.85 0.35 0.18 0.42 0.92 1.22 1.15 0.80 0.98 1.43 1.69 2.10 2.79 1.88 1.78 1.88 2.29
0.00 0.01 0.01 0.01 0.02 0.12 0.11 0.27 0.59 0.94 0.89 0.53 0.51 0.69 0.55 0.47 0.41 0.45 0.53 0.58 0.94 0.64 0.59 0.67 0.64 0.82 0.72 0.42 0.39 0.53 0.69 1.28 0.94 1.11 0.97 1.12 1.13 1.55 1.76 2.01 2.13 2.24 2.17 2.42
0.00 0.01 0.00 0.00 0.00 0.03 0.09 0.27 0.44 0.29 0.27 0.36 0.88 0.92 0.52 0.42 0.43 0.20 0.25 0.34 0.50 0.77 1.00 0.84 0.65 0.84 1.34 1.10 0.98 0.90 1.16 0.69 0.45 0.53 0.81 0.77 0.89 1.10 1.42 2.02 2.37 2.38 2.90 2.88
0.00 0.01 0.01 0.01 0.04 0.06 0.06 0.13 0.13 0.16 0.37 1.13 0.72 1.29 1.32 0.59 0.43 0.33 0.33 0.31 0.29 0.75 1.69 1.96 1.52 0.86 1.10 1.66 1.61 1.69 1.69 1.22 0.71 0.33 0.49 0.60 0.61 0.67 0.93 1.38 1.57 1.92 2.28 3.37
0.00 0.01 0.01 0.01 0.01 0.03 0.04 0.03 0.07 0.13 0.23 0.66 0.37 0.90 1.34 1.08 0.24 0.18 0.31 0.34 0.36 0.72 1.48 2.80 2.82 2.39 1.52 2.10 1.69 2.77 1.98 1.24 0.94 0.93 0.85 1.01 0.83 0.80 1.65 1.07 1.16 1.53 1.83 2.04
0.03 0.05 0.02 0.02 0.01 0.01 0.03 0.02 0.04 0.07 0.22 0.19 0.17 0.36 0.47 0.48 0.26 0.40 0.42 0.42 0.79 1.10 1.07 1.70 2.49 2.63 2.16 2.02 1.62 1.75 2.28 1.60 1.41 1.43 1.66 1.37 1.54 1.46 1.29 1.33 1.22 1.48 1.99 2.13
0.12 0.09 0.03 0.03 0.02 0.01 0.03 0.04 0.04 0.05 0.15 0.48 0.44 0.58 0.53 0.37 0.38 0.56 0.19 0.57 0.85 0.53 0.80 0.98 1.45 2.13 2.48 2.32 1.98 1.92 2.36 3.39 2.28 2.20 2.30 2.08 1.82 1.49 1.71 1.80 2.00 1.92 2.03 2.45
0.26 0.11 0.03 0.06 0.09 0.08 0.11 0.06 0.04 0.06 0.32 0.40 0.32 0.25 0.59 0.16 0.21 0.32 0.32 0.39 0.55 0.80 0.82 1.10 1.13 1.43 2.39 2.54 2.32 2.51 2.92 3.15 3.52 2.80 2.79 2.33 1.88 1.73 1.84 2.02 2.32 2.59 2.36 3.06
0.19 0.09 0.02 0.05 0.12 0.05 0.07 0.17 0.23 0.13 0.12 0.08 0.10 0.06 0.14 0.37 0.35 0.41 0.46 0.44 0.50 0.45 0.54 0.76 1.04 1.22 1.86 2.82 3.01 2.93 2.73 2.73 2.42 2.27 2.65 3.09 3.14 2.59 2.57 2.46 3.09 3.89 3.36 3.94
0.09 0.07 0.04 0.02 0.03 0.15 0.09 0.02 0.03 0.07 0.04 0.06 0.07 0.13 0.44 0.85 1.13 0.45 0.18 0.17 0.46 0.86 1.10 1.43 2.06 2.16 2.49 2.58 3.40 3.07 2.93 3.05 3.03 2.62 2.43 2.63 3.46 3.42 2.84 2.80 2.86 3.20 3.26 3.40
0.17 0.20 0.18 0.06 0.05 0.13 0.19 0.07 0.05 0.04 0.06 0.08 0.13 0.09 0.25 0.72 1.15 0.48 0.32 0.49 0.87 1.69 1.70 1.90 2.29 2.44 2.85 3.05 3.11 2.64 2.30 3.24 3.59 3.83 2.81 2.51 2.94 2.56 2.83 3.31 3.26 2.40 2.31 2.37
0.17 0.40 0.41 0.29 0.21 0.45 0.23 0.08 0.05 0.05 0.09 0.07 0.07 0.15 0.47 0.60 0.36 0.37 0.61 1.63 2.84 3.00 2.88 3.56 3.27 3.52 3.32 3.23 3.49 3.29 2.94 2.94 3.40 3.45 3.59 3.51 3.42 3.74 3.59 2.86 2.10 1.87 1.87 1.92
0.08 0.34 0.48 0.46 0.51 0.37 0.18 0.10 0.05 0.06 0.12 0.15 0.21 0.36 0.49 1.15 0.96 1.33 1.55 1.48 1.43 1.45 1.82 2.14 1.61 1.98 3.07 3.82 3.78 4.59 4.70 5.47 5.30 4.42 5.71 5.43 3.61 2.81 2.45 2.18 2.07 1.93 1.91 1.69
0.22 0.35 0.69 0.60 0.99 0.78 0.45 0.33 0.25 0.21 0.34 0.21 0.25 0.75 0.76 0.70 0.95 0.94 0.78 0.90 0.77 0.82 1.65 1.31 0.81 0.76 1.01 2.03 3.05 4.31 5.97 6.31 6.67 6.30 5.34 5.45 4.91 3.63 2.85 3.03 3.22 3.19 3.13 2.75
0.52 0.61 0.73 0.54 0.88 0.77 0.39 0.28 0.32 0.59 0.51 0.25 0.28 0.76 1.27 2.18 1.73 0.97 0.68 0.54 0.53 0.76 1.03 0.90 0.59 0.93 1.74 3.23 4.12 4.52 4.99 5.59 6.03 5.64 6.10 5.51 4.81 4.89 4.32 4.33 4.30 4.14 4.16 4.20
1.13 1.09 1.18 0.75 1.37 1.46 0.48 0.57 0.75 0.59 0.25 0.82 0.97 1.39 1.27 1.12 1.14 0.74 0.40 0.33 0.28 0.32 0.43 0.66 1.20 2.68 3.87 4.33 5.25 5.07 4.91 5.84 7.13 7.93 6.89 6.89 6.18 5.89 6.30 5.62 5.18 5.30 5.06 5.08
1.19 1.22 1.35 0.92 1.40 1.21 0.77 0.88 0.73 0.60 0.69 0.52 0.74 1.16 1.66 1.37 0.75 0.43 0.31 0.20 0.31 0.38 0.45 0.71 1.09 1.47 2.19 3.05 3.93 4.04 3.63 3.29 3.16 3.56 4.18 5.29 6.42 5.48 5.15 5.35 5.86 6.32 5.78 5.04
1.08 1.22 1.16 0.93 1.00 1.14 0.90 1.00 0.94 0.97 0.96 1.07 0.49 0.63 0.55 0.67 0.65 0.35 0.20 0.27 0.26 0.29 0.56 0.50 0.49 0.87 1.03 1.61 2.34 2.23 1.57 1.39 1.92 2.40 2.32 2.58 3.18 3.14 3.28 3.25 3.71 4.89 6.53 6.56
1.50 1.33 1.08 0.98 1.03 1.23 1.03 1.47 1.21 1.11 0.90 1.05 1.89 1.56 0.82 0.56 0.40 0.37 0.34 0.36 0.36 0.43 0.37 0.36 0.39 0.70 0.95 0.94 1.10 1.06 0.91 0.99 1.15 1.48 1.50 1.54 2.03 2.51 2.76 3.24 3.11 2.94 3.55 4.59
1.49 1.64 1.51 1.32 1.16 2.37 2.16 2.02 1.75 1.53 1.53 1.52 2.02 1.58 1.35 1.14 1.15 1.06 0.91 0.81 0.69 0.77 0.79 0.78 0.84 1.12 1.41 1.34 0.92 0.78 0.59 0.56 0.86 1.13 1.31 1.51 1.68 1.72 1.96 2.49 2.76 3.32 3.73 3.93